Retour au catalogue

STARLINK-37359

ActifCommunicationsVLEO
NORAD 69188·PAYLOAD·🇺🇸 United States

Lancé May 25, 2026 depuis Cape Canaveral Space Force Station

Loading…

Prochains Passages (prochaines 24 heures)

TLE

FraisSource: CelesTrak SupGP

Époque: Sep 15, 2026, 04:04 UTC

1 69188C 26114G   26258.16993056  .00042499  00000+0  12556-2 0  2584
2 69188  53.1557 138.8461 0001215  82.4916 329.2646 15.34371840    19

Suivez STARLINK-37359 en temps réel avec AllMySat

Download on the App Store